Location: Bletchingley
(51.2333°N, 0.1000°W)
Time: 15:32:28
(UTC+00:00)

USA 234 - Pass Details

Date: 18 September 2020
Orbit: 1102 x 1106 km, 123.0° (Epoch: 16 October)

Event Time Altitude Azimuth Distance (km) Brightness Sun altitude
Rises 23:43:30 0° 77° (ENE) 3,922 6.3 -37.3°
Reaches altitude 10° 23:46:01 10° 74° (ENE) 2,965 5.6 -37.4°
Enters shadow 23:50:38 43° 44° (NE) 1,505 4.1 -37.4°
Exits shadow 23:54:28 39° 308° (NW) 1,592 4.2 -37.4°
Drops below altitude 10° 23:58:41 10° 284° (WNW) 2,966 5.6 -37.4°
Sets 00:01:13 0° 281° (W) 3,925 6.3 -37.4°
